Anchorage Merrill, AK

2:56 AM AKST on December 18, 2017 (GMT -0900)
Merrill

Weather History for PAMR - November, 2011

Change the Weather History Date:

Monday, November 28, 2011

  Actual Average Record
Temperature  
Mean Temperature 17 °F -  
Max Temperature 26 °F 23 °F 46 °F (2004)
Min Temperature 8 °F 12 °F -5 °F (2005)
Degree Days  
Heating Degree Days 48    
Moisture  
Dew Point 12 °F    
Average Humidity 78    
Maximum Humidity 92    
Minimum Humidity 51    
Precipitation  
Precipitation 0.02 in - - ()
Sea Level Pressure  
Sea Level Pressure 29.45 in    
Wind  
Wind Speed 1 mph (ESE)    
Max Wind Speed 6 mph    
Max Gust Speed -    
Visibility 8 miles    
Events Snow    
Averages and records for this station are not official NWS values.
T = Trace of Precipitation, MM = Missing Value Source: NWS Daily Summary

Daily Weather History Graph

Daily Weather History Graph

Search for Another Location

Airport or City:

Trip Planner

Search our weather history database for the weather conditions in past years. The results will help you decide how hot, cold, wet, or windy it might be!

Date:

Astronomy

Nov. 28, 2011 Rise Set
Actual Time 9:38 AM AKST 3:56 PM AKST
Civil Twilight 8:41 AM AKST 4:52 PM AKST
Nautical Twilight 7:44 AM AKST 5:49 PM AKST
Astronomical Twilight 6:52 AM AKST 6:41 PM AKST
Moon 12:39 PM AKST (11/28) 8:14 PM AKST (11/28)
Length of Visible Light 8h 11m
Length of Day
6h 17m
Waxing Crescent, 17% of the Moon is Illuminated
Nov 28
Waxing Crescent
Dec 2
First Quarter
Dec 10
Full
Dec 17
Last Quarter
Dec 24
New

Hourly Weather History & Observations

Time (AKST) Temp. Windchill Dew Point Humidity Pressure Visibility Wind Dir Wind Speed Gust Speed Precip Events Conditions
12:53 AM 23.0 °F - 9.0 °F 55% 29.31 in 10.0 mi Calm Calm - N/A   Overcast
1:53 AM 23.0 °F - 10.0 °F 58% 29.29 in 10.0 mi Calm Calm - N/A   Overcast
3:53 AM 24.1 °F - 10.9 °F 57% 29.28 in 10.0 mi Calm Calm - N/A   Overcast
4:53 AM 26.1 °F - 10.0 °F 51% 29.28 in 10.0 mi Calm Calm - N/A   Overcast
5:53 AM 21.0 °F - 7.0 °F 55% 29.28 in 10.0 mi Calm Calm - N/A   Mostly Cloudy
6:53 AM 10.4 °F 4.0 °F 6.1 °F 83% 29.29 in 10.0 mi ENE 3.5 mph - N/A   Partly Cloudy
7:53 AM 10.4 °F - 8.6 °F 92% 29.31 in 10.0 mi Calm Calm - N/A   Scattered Clouds
8:53 AM 8.6 °F - 6.1 °F 89% 29.32 in 10.0 mi Calm Calm - N/A   Scattered Clouds
9:53 AM 8.6 °F - 6.1 °F 89% 29.35 in 10.0 mi Calm Calm - N/A   Overcast
10:53 AM 14.0 °F 8.2 °F 10.9 °F 88% 29.38 in 10.0 mi South 3.5 mph - N/A   Overcast
11:53 AM 14.0 °F 6.5 °F 10.9 °F 88% 29.40 in 10.0 mi South 4.6 mph - N/A   Mostly Cloudy
12:53 PM 19.0 °F 11.1 °F 12.9 °F 77% 29.43 in 10.0 mi South 5.8 mph - N/A   Scattered Clouds
1:53 PM - - - N/A% 29.44 in 10.0 mi South 4.6 mph - N/A   Clear
2:53 PM 17.6 °F 12.3 °F 13.1 °F 83% 29.47 in 10.0 mi South 3.5 mph - N/A   Mostly Cloudy
3:53 PM 19.9 °F 14.9 °F 14.0 °F 78% 29.49 in 10.0 mi SSE 3.5 mph - N/A   Overcast
4:53 PM 19.0 °F - 14.0 °F 81% 29.51 in 10.0 mi Calm Calm - N/A   Overcast
5:53 PM 19.9 °F 13.4 °F 12.9 °F 74% 29.54 in 10.0 mi NNE 4.6 mph - N/A   Overcast
6:53 PM 19.9 °F - 14.0 °F 78% 29.56 in 10.0 mi Calm Calm - N/A   Overcast
7:53 PM 21.0 °F - 15.1 °F 78% 29.58 in 8.0 mi Calm Calm - 0.00 in Snow Light Snow
8:09 PM 21.2 °F - 15.8 °F 80% 29.58 in 2.5 mi Calm Calm - 0.00 in Snow Light Snow
8:11 PM 21.2 °F - 15.8 °F 80% 29.58 in 1.5 mi Calm Calm - 0.00 in Snow Light Snow
8:53 PM 21.0 °F 16.2 °F 18.0 °F 88% 29.61 in 1.5 mi North 3.5 mph - 0.01 in Snow Light Snow
9:53 PM 19.9 °F 14.9 °F 17.1 °F 89% 29.64 in 4.0 mi East 3.5 mph - 0.01 in Snow Light Snow
10:53 PM 21.0 °F 16.2 °F 17.1 °F 85% 29.67 in 7.0 mi NNE 3.5 mph - 0.00 in Snow Light Snow
11:53 PM 21.0 °F 16.2 °F 17.1 °F 85% 29.70 in 7.0 mi NNE 3.5 mph - 0.00 in Snow Light Snow